[[{"header":{"parameterUnit":"m.s-1","parameterCategory":1,"la1":30.2991,"la2":30.254,"lo1":-89.0895,"lo2":-89.0444,"dy":0.0017,"dx":0.0017,"nx":28,"ny":28,"refTime":"2025-01-16T09:00:00:Z","depth":0,"parameterNumber":2,"parameterNumberName":"U-component_of_WINDS"},"data":[0,0,0,0,0,0,0,0,0,0,0,0,0,0,0,0,0,0,0,0,0,0,0,0,0,0,0,0,0,0,0,0,0,0,0,0,0,0,0,0,0,0,0,0,0,0,0,0,0,0,0,0,0,0,0,0,0,0,-1.9529,-1.9529,0,-1.9585,-1.9586,-1.9586,-1.9593,-1.9592,-1.9592,-1.9591,-1.9647,-1.9649,-1.9651,0,0,0,0,0,0,0,0,0,0,0,0,0,-1.9425,-1.9427,-1.9529,-1.9529,-1.953,-1.9585,-1.9586,-1.9587,-1.9593,-1.9592,-1.9591,-1.9591,-1.9646,-1.9649,-1.9651,0,0,0,0,0,0,0,0,0,0,0,0,0,-1.9475,-1.9428,-1.9529,-1.954,-1.9541,-1.9585,-1.9586,-1.9587,-1.9593,-1.9592,-1.9591,-1.959,-1.9646,-1.9649,-1.9652,-1.9687,0,0,-1.9661,-1.9662,0,0,0,0,0,0,0,0,-1.9472,-1.9479,-1.9538,-1.9539,-1.9541,-1.9581,-1.957,-1.962,-1.9593,-1.9573,-1.9591,-1.959,-1.9626,-1.963,-1.9643,-1.969,-1.9692,-1.9661,-1.9663,-1.9664,-1.9665,0,0,0,0,0,0,0,-1.9469,-1.9476,-1.9551,-1.9538,-1.9541,-1.9542,-1.9548,-1.9579,-1.9603,-1.9575,-1.9576,-1.9582,-1.9626,-1.964,-1.9644,-1.9693,-1.9661,-1.9664,-1.9666,-1.9667,-1.9772,-1.9773,0,0,0,0,0,0,-1.9463,-1.9473,-1.9549,-1.9553,-1.9504,-1.9544,-1.9551,-1.9569,-1.9603,-1.9608,-1.9583,-1.9582,-1.9635,-1.964,-1.9646,-1.9689,-1.9664,-1.9667,-1.9669,-1.9771,-1.9772,-1.9773,0,0,0,0,0,0,-1.9461,-1.947,-1.9547,-1.9513,-1.9523,-1.9547,-1.9567,-1.9571,-1.9584,-1.9609,-1.9613,-1.9592,-1.9635,-1.9642,-1.9677,-1.9691,-1.9668,-1.9671,-1.977,-1.9771,-1.9772,-1.9777,0,0,0,0,0,0,-1.9458,-1.9469,-1.9483,-1.9513,-1.9525,-1.9577,-1.9568,-1.9572,-1.9589,-1.9589,-1.9619,-1.9623,-1.9634,-1.9672,-1.968,-1.9695,-1.9673,-1.9768,-1.977,-1.9772,-1.9775,-1.9778,-1.978,0,0,0,0,0,-1.9454,-1.9481,-1.9484,-1.9493,-1.9543,-1.9578,-1.9584,-1.9597,-1.959,-1.9604,-1.9621,-1.9622,-1.9689,-1.9676,-1.9684,-1.9701,-1.9767,-1.977,-1.9772,-1.9774,-1.9777,-1.978,0,0,0,0,0,0,-1.9451,-1.9486,-1.9488,-1.9526,-1.9549,-1.9579,-1.9597,-1.9601,-1.9625,-1.9624,-1.9639,-1.9646,-1.968,-1.9694,-1.9679,-1.9737,-1.9727,-1.9731,-1.9726,-1.973,-1.9732,-1.9727,-1.9676,0,0,0,0,0,-1.9455,-1.9481,-1.951,-1.9541,-1.9552,-1.9573,-1.9588,-1.9597,-1.9621,-1.963,-1.9649,-1.9672,-1.9698,-1.9715,-1.974,-1.9778,-1.9784,-1.9793,-1.9796,-1.9798,-1.9801,-1.9821,-1.9826,-1.978,-1.978,-1.978,0,0,-1.9463,-1.9485,-1.9501,-1.9541,-1.9559,-1.9586,-1.9581,-1.9609,-1.9628,-1.9634,-1.9668,-1.9683,-1.971,-1.9746,-1.9763,-1.9759,-1.9815,-1.9801,-1.9802,-1.9804,-1.9824,-1.9828,-1.9832,-1.9782,-1.9781,-1.9781,0,0,-1.9491,-1.9511,-1.9538,-1.9558,-1.9586,-1.96,-1.9607,-1.9636,-1.9646,-1.9681,-1.9686,-1.971,-1.9754,-1.9773,-1.9788,-1.9824,-1.9826,-1.9832,-1.9845,-1.9865,-1.9869,-1.9872,-1.9884,-1.9888,-1.9835,-1.9835,-1.9835,0,-1.9497,-1.9537,-1.9552,-1.958,-1.9597,-1.9605,-1.9633,-1.9651,-1.9686,-1.9697,-1.9693,-1.9749,-1.9768,-1.9808,-1.9817,-1.983,-1.9837,-1.9828,-1.9867,-1.9871,-1.9874,-1.9885,-1.989,-1.9836,-1.9836,-1.9836,-1.9836,0,-1.9543,-1.9571,-1.959,-1.9624,-1.9644,-1.9672,-1.969,-1.9708,-1.9715,-1.9729,-1.9764,-1.9787,-1.9817,-1.9828,-1.9835,-1.987,-1.9866,-1.9864,-1.9855,-1.9878,-1.9889,-1.9894,-1.9837,-1.9836,-1.9836,-1.9836,0,0,-1.9569,-1.9612,-1.9619,-1.9635,-1.9667,-1.9689,-1.9717,-1.9747,-1.9762,-1.9787,-1.981,-1.9849,-1.9847,-1.9864,-1.9874,-1.9891,-1.9917,-1.9887,-1.9888,-1.9891,-1.9957,-1.9957,-1.9962,-1.992,-1.9921,-1.9921,-1.9954,0,-1.96,-1.9651,-1.9665,-1.9708,-1.9734,-1.9742,-1.9767,-1.9789,-1.9803,-1.9827,-1.9842,-1.9869,-1.9865,-1.9876,-1.9894,-1.991,-1.9931,-1.9908,-1.9941,-1.9942,-1.9933,-1.9968,-1.9969,-1.9999,-1.9959,-1.996,-1.996,0,-1.9643,-1.9668,-1.9714,-1.9743,-1.9755,-1.9776,-1.9805,-1.9828,-1.9854,-1.9863,-1.9883,-1.989,-1.992,-1.991,-1.995,-1.9935,-1.9949,-1.9959,-1.9961,-1.9963,-1.9951,-1.997,-2.0008,-2.0013,-1.9967,-1.9967,-1.9966,0,-1.9656,-1.9702,-1.9735,-1.9749,-1.9784,-1.9799,-1.9815,-1.984,-1.9857,-1.9882,-1.9894,-1.9922,-1.9937,-1.9959,-1.9974,-1.9965,-2.0012,-2.0004,-2.002,-2.002,-2.0029,-2.0028,-2.0068,-2.004,-2.004,-2.004,-2.0039,0,-1.9688,-1.9715,-1.9742,-1.9762,-1.9793,-1.9809,-1.9839,-1.9855,-1.9877,-1.99,-1.9909,-1.9931,-1.995,-1.9974,-1.9986,-2.0017,-2.0024,-2.0032,-2.0034,-2.003,-2.0029,-2.0039,-2.0037,-2.0041,-2.0041,-2.004,-2.004,0,-1.9708,-1.9727,-1.9763,-1.9794,-1.9803,-1.9824,-1.985,-1.987,-1.9885,-1.9914,-1.9922,-1.9945,-1.9974,-1.9991,-2.0028,-2.0036,-2.007,-2.0072,-2.0061,-2.0062,-2.0077,-2.0075,-2.0124,-2.0131,-2.0099,-2.0099,-2.01,0,-1.9727,-1.9748,-1.9781,-1.9798,-1.9814,-1.984,-1.9858,-1.9875,-1.9893,-1.9925,-1.994,-1.997,-1.9994,-2.004,-2.0059,-2.0087,-2.009,-2.0105,-2.0094,-2.0089,-2.0089,-2.0087,-2.0089,-2.0106,-2.0107,-2.0107,-2.0107,0,-1.9758,-1.9766,-1.9792,-1.9821,-1.9842,-1.9866,-1.9889,-1.9902,-1.9924,-1.9943,-1.9973,-1.9992,-2.003,-2.0058,-2.0088,-2.0104,-2.0109,-2.0111,-2.0116,-2.0111,-2.0104,-2.0107,-2.0065,-2.0109,-2.0109,-2.0109,-2.0109,-2.0109,-1.9777,-1.9796,-1.9823,-1.9851,-1.9871,-1.9893,-1.9913,-1.9931,-1.9956,-1.9988,-1.9997,-2.0028,-2.0053,-2.0094,-2.011,-2.0134,-2.0132,-2.0139,-2.0141,-2.0142,-2.0142,-2.0101,-2.014,-2.014,-2.014,-2.014,-2.014,0,-1.9807,-1.9825,-1.9851,-1.9884,-1.9907,-1.9911,-1.9937,-1.9955,-1.9982,-2.0006,-2.003,-2.0064,-2.0093,-2.0115,-2.0144,-2.0159,-2.0162,-2.0166,-2.0164,-2.0168,-2.0143,-2.0135,-2.0163,-2.0163,-2.0163,-2.0163,-2.0163,-2.0163,-1.9826,-1.9858,-1.987,-1.9913,-1.993,-1.9961,-1.9976,-1.9996,-2.0015,-2.0053,-2.0076,-2.0091,-2.0114,-2.0145,-2.0171,-2.0177,-2.0187,-2.019,-2.0196,-2.0172,-2.017,-2.0167,-2.016,-2.0192,-2.0192,-2.0219,-2.0219,-2.0219]},{"header":{"parameterUnit":"m.s-1","parameterCategory":1,"la1":30.2991,"la2":30.254,"lo1":-89.0895,"lo2":-89.0444,"dy":0.0017,"dx":0.0017,"nx":28,"ny":28,"refTime":"2025-01-16T09:00:00:Z","depth":0,"parameterNumber":3,"parameterNumberName":"V-component_of_WINDS"},"data":[0,0,0,0,0,0,0,0,0,0,0,0,0,0,0,0,0,0,0,0,0,0,0,0,0,0,0,0,0,0,0,0,0,0,0,0,0,0,0,0,0,0,0,0,0,0,0,0,0,0,0,0,0,0,0,0,0,0,2.5276,2.5276,0,2.5277,2.5277,2.5277,2.5335,2.5336,2.5338,2.5339,2.5339,2.5337,2.5336,0,0,0,0,0,0,0,0,0,0,0,0,0,2.5325,2.5324,2.5276,2.5276,2.5276,2.5277,2.5277,2.5277,2.5335,2.5337,2.5338,2.534,2.5339,2.5337,2.5336,0,0,0,0,0,0,0,0,0,0,0,0,0,2.5313,2.5324,2.5276,2.5305,2.5308,2.5277,2.5277,2.5277,2.5334,2.5337,2.5339,2.5341,2.534,2.5338,2.5335,2.5276,0,0,2.5329,2.5328,0,0,0,0,0,0,0,0,2.5313,2.5311,2.5301,2.5303,2.5306,2.5308,2.5294,2.5277,2.5334,2.5324,2.5339,2.5342,2.5327,2.5326,2.5321,2.5276,2.5276,2.5329,2.5327,2.5326,2.5326,0,0,0,0,0,0,0,2.5314,2.5311,2.5276,2.5301,2.5304,2.5318,2.5319,2.5291,2.5312,2.5325,2.5329,2.5329,2.5328,2.5323,2.5321,2.5276,2.5329,2.5327,2.5325,2.5325,2.5189,2.5186,0,0,0,0,0,0,2.5311,2.5311,2.5276,2.5276,2.5315,2.5316,2.5316,2.5305,2.5313,2.5316,2.5327,2.5331,2.5325,2.5324,2.5321,2.5256,2.5326,2.5324,2.5323,2.5191,2.5188,2.5186,0,0,0,0,0,0,2.5312,2.5307,2.5276,2.5295,2.5292,2.5312,2.5299,2.5304,2.5298,2.5314,2.5318,2.5317,2.5327,2.5324,2.5288,2.5257,2.5323,2.5321,2.5194,2.519,2.5187,2.5123,0,0,0,0,0,0,2.5313,2.5307,2.5285,2.5294,2.5291,2.5243,2.5297,2.5302,2.5295,2.5301,2.5306,2.5309,2.5329,2.5291,2.5286,2.5255,2.532,2.5197,2.5192,2.5188,2.5128,2.5118,2.5109,0,0,0,0,0,2.5315,2.5265,2.5283,2.5278,2.5263,2.5241,2.5239,2.5263,2.5292,2.527,2.5281,2.5309,2.5261,2.5287,2.5282,2.5249,2.5199,2.5193,2.5188,2.5132,2.512,2.5109,0,0,0,0,0,0,2.5249,2.5267,2.5287,2.5239,2.5238,2.5251,2.5223,2.5248,2.5238,2.5244,2.5274,2.5274,2.5235,2.5238,2.5267,2.5195,2.5235,2.5229,2.5194,2.5183,2.5173,2.5174,2.5318,0,0,0,0,0,2.523,2.521,2.5226,2.5183,2.5181,2.5202,2.5193,2.5212,2.5212,2.5212,2.522,2.5219,2.5204,2.5193,2.518,2.5129,2.5133,2.5104,2.5095,2.5087,2.5081,2.5058,2.5047,2.5168,2.5169,2.5169,0,0,2.5188,2.5196,2.5181,2.517,2.5171,2.5152,2.5201,2.5177,2.5163,2.5208,2.5176,2.5182,2.5182,2.514,2.5121,2.5142,2.5049,2.508,2.5074,2.5073,2.5052,2.504,2.503,2.5165,2.5166,2.5166,0,0,2.5104,2.5106,2.5072,2.5073,2.5076,2.5091,2.5082,2.5092,2.5098,2.5066,2.5101,2.5085,2.5057,2.5058,2.5054,2.4974,2.5001,2.4968,2.4919,2.4896,2.4887,2.4879,2.4853,2.4843,2.4963,2.4962,2.4962,0,2.5052,2.5023,2.5051,2.5026,2.5021,2.5062,2.5029,2.5029,2.5026,2.5023,2.5046,2.5015,2.5018,2.4978,2.4959,2.4954,2.4947,2.4968,2.4886,2.4878,2.4871,2.4846,2.4836,2.4959,2.4959,2.4959,2.496,0,2.4961,2.4941,2.4913,2.4912,2.4904,2.4875,2.4899,2.4888,2.4908,2.4921,2.489,2.4895,2.4886,2.4878,2.4896,2.4841,2.4854,2.4881,2.4922,2.4855,2.4833,2.4823,2.4953,2.4955,2.4956,2.4957,0,0,2.4833,2.4851,2.4841,2.4843,2.485,2.4835,2.4809,2.4801,2.4793,2.479,2.477,2.4748,2.4774,2.477,2.479,2.4769,2.4709,2.4799,2.48,2.4785,2.4653,2.4634,2.4623,2.4727,2.4725,2.4724,2.4654,0,2.4754,2.4711,2.4736,2.469,2.4674,2.4714,2.4692,2.4695,2.4707,2.4695,2.4708,2.4693,2.4727,2.4726,2.4707,2.472,2.4684,2.4726,2.471,2.471,2.4711,2.4611,2.459,2.4524,2.4645,2.4644,2.4643,0,2.4654,2.4651,2.4603,2.4618,2.4612,2.4591,2.4589,2.4576,2.4581,2.4592,2.4589,2.4614,2.4591,2.4631,2.4601,2.4629,2.4624,2.463,2.4628,2.4629,2.4673,2.4611,2.4503,2.4494,2.4629,2.463,2.4631,0,2.457,2.4553,2.4523,2.4523,2.4538,2.4524,2.453,2.4537,2.4532,2.4529,2.4527,2.452,2.4518,2.4513,2.4537,2.4563,2.4504,2.4545,2.4514,2.4513,2.45,2.4501,2.4392,2.4494,2.4494,2.4494,2.4494,0,2.448,2.4449,2.4486,2.4468,2.4437,2.4467,2.4435,2.4445,2.4452,2.4437,2.4471,2.4457,2.4488,2.4477,2.4496,2.447,2.4467,2.4476,2.4482,2.4474,2.4474,2.4473,2.4479,2.4491,2.4492,2.4493,2.4493,0,2.438,2.4403,2.4374,2.4393,2.4397,2.4373,2.4389,2.4374,2.4389,2.437,2.4368,2.4392,2.4381,2.4404,2.4396,2.4409,2.4373,2.4384,2.4372,2.4376,2.4345,2.4348,2.4233,2.422,2.4327,2.4326,2.4325,0,2.4321,2.43,2.4317,2.4311,2.4315,2.4303,2.43,2.4329,2.4324,2.4331,2.4315,2.4308,2.4304,2.4285,2.4302,2.4297,2.431,2.427,2.431,2.4304,2.4313,2.4315,2.4315,2.4262,2.4261,2.426,2.4259,0,2.4216,2.423,2.4223,2.4222,2.4217,2.4217,2.4219,2.4211,2.4243,2.4236,2.4227,2.4224,2.4217,2.4211,2.421,2.4217,2.4244,2.4247,2.424,2.4233,2.4228,2.4233,2.4352,2.4249,2.425,2.4251,2.4252,2.4252,2.4138,2.4122,2.4133,2.4126,2.4131,2.4133,2.4121,2.4136,2.4129,2.4128,2.4145,2.4133,2.4142,2.4145,2.4149,2.414,2.4158,2.4147,2.4145,2.4142,2.4139,2.4228,2.414,2.414,2.414,2.414,2.4141,0,2.4037,2.4047,2.404,2.4044,2.4038,2.4065,2.407,2.4064,2.4053,2.406,2.4056,2.4047,2.4042,2.4059,2.4057,2.4047,2.4059,2.4045,2.4047,2.4049,2.4121,2.4128,2.4035,2.4035,2.4035,2.4035,2.4035,2.4035,2.3984,2.396,2.3976,2.3956,2.3966,2.3955,2.3956,2.3959,2.3965,2.3954,2.395,2.3962,2.3974,2.3973,2.397,2.3976,2.3974,2.3956,2.3966,2.4033,2.4043,2.4053,2.4061,2.3955,2.3955,2.3896,2.3895,2.3895]}]]